Home   Weather   Marquette   Past weeks
Flag for USA

Past Weather in Marquette, Michigan, USA — Yesterday and Last 2 Weeks

Now
70 °F

Fog.


Feels Like: 70 °F
Forecast: 81 / 67 °F
Wind: 3 mph from West

Location: Sawyer Airport

Current Time: Jul 19, 2019 at 9:16:24 am

Latest Report: Jul 19, 2019 at 7:45 am


Visibility: 5 mi

Pressure: 29.71 "Hg

Humidity: 94%

Dew Point: 68 °F

Location of MarquetteLocation

Past Weather in Marquette — Graph

°F

Marquette Temperature Yesterday

Maximum temperature yesterday: 84 °F (at 5:45 pm)
Minimum temperature yesterday: 67 °F (at 12:38 am)
Average temperature yesterday: 73 °F

High & Low Weather Summary for the Past Weeks

 TemperatureHumidityPressure
High90 °F (Jul 10, 4:48 pm)100% (Jul 5, 9:00 am)30.19 "Hg (Jul 5, 9:00 am)
Low45 °F (Jul 7, 3:59 am)27% (Jul 10, 4:48 pm)29.64 "Hg (Jul 18, 6:45 pm)
Average66 °F75%29.96 "Hg
* Reported Jul 4 7:47 am — Jul 19 7:45 am, Marquette. Weather by CustomWeather, © 2019

Note: Actual official high and low records may vary slightly from our data, if they occured in-between our weather recording intervals... More about our weather records

Advertising

Marquette Weather History for the Previous 24 Hours

Scroll right to see more
 ConditionsComfort  
Time TempWeatherWind HumidityBarometerVisibility
7:45 am
Fri, Jul 19
70 °FFog.3 mph94%29.71 "Hg5 mi
7:10 am70 °FFog.6 mph94%29.72 "Hg5 mi
6:48 am68 °FFog.6 mph94%29.71 "Hg5 mi
6:00 am68 °FFog.3 mph95%29.69 "Hg5 mi
5:41 am68 °FClear.5 mph95%29.68 "Hg7 mi
5:19 am68 °FClear.5 mph95%29.70 "Hg7 mi
4:58 am67 °FFog.6 mph94%29.71 "Hg5 mi
4:21 am67 °FClear.6 mph94%29.69 "Hg7 mi
4:03 am67 °FClear.6 mph94%29.69 "Hg10 mi
3:38 am69 °FClear.No wind92%29.68 "Hg10 mi
3:00 am69 °FClear.No wind91%29.69 "Hg10 mi
2:19 am70 °FClear.No wind91%29.69 "Hg10 mi
1:58 am70 °FClear.6 mph90%29.70 "Hg10 mi
1:39 am71 °FClear.3 mph87%29.69 "Hg10 mi
1:21 am72 °FClear.No wind86%29.69 "Hg10 mi
12:58 am72 °FClear.3 mph86%29.69 "Hg10 mi
12:38 am73 °FClear.No wind84%29.69 "Hg10 mi
12:18 am73 °FClear.5 mph83%29.69 "Hg10 mi
12:00 am73 °FClear.6 mph83%29.70 "Hg10 mi
11:42 pm
Thu, Jul 18
74 °FClear.5 mph81%29.70 "Hg10 mi
11:18 pm75 °FClear.6 mph80%29.69 "Hg10 mi
10:59 pm76 °FClear.7 mph79%29.69 "Hg10 mi
10:21 pm77 °FPassing clouds.8 mph77%29.67 "Hg10 mi
9:45 pm79 °FPassing clouds.6 mph74%29.65 "Hg10 mi
8:45 pm82 °FScattered clouds.8 mph62%29.64 "Hg10 mi
7:45 pm84 °FBroken clouds.8 mph58%29.64 "Hg10 mi
6:45 pm84 °FScattered clouds.10 mph55%29.64 "Hg10 mi
5:45 pm84 °FBroken clouds.10 mph55%29.65 "Hg10 mi
4:45 pm82 °FPartly sunny.8 mph58%29.66 "Hg10 mi
3:48 pm82 °FBroken clouds.9 mph58%29.68 "Hg10 mi
2:47 pm79 °FMore clouds than sun.13 mph61%29.70 "Hg10 mi
1:48 pm81 °FPartly sunny.12 mph62%29.71 "Hg10 mi
12:47 pm75 °FLight rain. Broken clouds.6 mph74%29.74 "Hg10 mi
11:47 am81 °FSunny.20 mph58%29.73 "Hg10 mi
10:47 am73 °FScattered clouds.9 mph74%29.71 "Hg10 mi
9:47 am72 °FBroken clouds.14 mph83%29.76 "Hg10 mi
Weather by CustomWeather, © 2019

See weather overview